This is the latest recevied weather packets stored in our database for station/object KC3ELT-10. If no packets are shown the sender has not sent any weather packets the latest 10 day(s).
| Time | Temp. | Humidity | Pressure | Rain* | Wind** | Luminosity | Snow |
|---|---|---|---|---|---|---|---|
| 1777997879 | 23.89° C | 44% | 1003.8 hPa | 0 mm | 1.34 m/s, 195° | - | - |
| 1777997579 | 23.89° C | 46% | 1004 hPa | 0 mm | 2.68 m/s, 285° | - | - |
| 1777997279 | 23.33° C | 47% | 1004 hPa | 0 mm | 0.89 m/s, 227° | - | - |
| 1777996979 | 23.89° C | 45% | 1004 hPa | 0 mm | 3.13 m/s, 215° | - | - |
| 1777996679 | 23.33° C | 46% | 1004.1 hPa | 0 mm | 2.68 m/s, 269° | - | - |
| 1777996379 | 23.33° C | 48% | 1004.1 hPa | 0 mm | 4.02 m/s, 265° | - | - |
| 1777996079 | 23.33° C | 45% | 1004.1 hPa | 0 mm | 4.02 m/s, 279° | - | - |
| 1777995779 | 23.33° C | 47% | 1004.3 hPa | 0 mm | 1.34 m/s, 194° | - | - |
| 1777995479 | 23.33° C | 52% | 1004.3 hPa | 0 mm | 2.24 m/s, 276° | - | - |
| 1777995179 | 23.33° C | 48% | 1004.3 hPa | 0 mm | 1.34 m/s, 244° | - | - |
| 1777994879 | 22.78° C | 48% | 1004.3 hPa | 0 mm | 1.79 m/s, 334° | - | - |
| 1777994579 | 22.78° C | 50% | 1004.3 hPa | 0 mm | 5.36 m/s, 271° | - | - |
| 1777994279 | 22.78° C | 51% | 1004.3 hPa | 0 mm | 1.34 m/s, 247° | - | - |
| 1777993979 | 22.22° C | 51% | 1004.4 hPa | 0 mm | 1.34 m/s, 185° | - | - |
| 1777993679 | 22.22° C | 51% | 1004.4 hPa | 0 mm | 0.45 m/s, 261° | - | - |
| 1777993379 | 21.67° C | 53% | 1004.4 hPa | 0 mm | 0.89 m/s, 221° | - | - |
| 1777993079 | 21.67° C | 51% | 1004.5 hPa | 0 mm | 0.45 m/s, 216° | - | - |
| 1777992779 | 21.11° C | 54% | 1004.5 hPa | 0 mm | 0.89 m/s, 224° | - | - |
| 1777992479 | 21.11° C | 53% | 1004.5 hPa | 0 mm | 4.92 m/s, 252° | - | - |
| 1777992179 | 21.11° C | 54% | 1004.5 hPa | 0 mm | 0.89 m/s, 200° | - | - |
| 1777991879 | 20.56° C | 55% | 1004.5 hPa | 0 mm | 1.79 m/s, 276° | - | - |
| 1777991579 | 20.56° C | 55% | 1004.5 hPa | 0 mm | 2.24 m/s, 236° | - | - |
| 1777991279 | 20.56° C | 57% | 1004.7 hPa | 0 mm | 0 m/s | - | - |
| 1777990979 | 20.56° C | 57% | 1004.7 hPa | 0 mm | 0.45 m/s, 190° | - | - |
| 1777990679 | 20° C | 58% | 1004.7 hPa | 0 mm | 0.89 m/s, 154° | - | - |
* Rain latest hour (hover to see other rain measurements)
** Current wind speed in m/s (hover to see current wind gust speed)